North Bend, OR

9:57 AM PDT on August 18, 2017 (GMT -0700)
North Bend Municipal

Weather History for KOTH - June, 2013

Change the Weather History Date:

Thursday, June 27, 2013

  Actual Average Record
Temperature  
Mean Temperature 67 °F 57 °F  
Max Temperature 73 °F 63 °F 75 °F (1995)
Min Temperature 61 °F 52 °F 41 °F (1924)
Degree Days  
Heating Degree Days 0 8  
Month to date heating degree days 171 244  
Since 1 June heating degree days 171 244  
Since 1 July heating degree days 4439 4804  
Cooling Degree Days 2 0  
Month to date cooling degree days 4 0  
Year to date cooling degree days 8 0  
Since 1 June cooling degree days 4 0  
Growing Degree Days 16 (Base 50)    
Moisture  
Dew Point 62 °F    
Average Humidity 91    
Maximum Humidity 100    
Minimum Humidity 78    
Precipitation  
Precipitation 0.00 in 0.03 in 0.65 in (2011)
Month to date precipitation 0.74 1.86  
Year to date precipitation 17.49 36.03  
Sea Level Pressure  
Sea Level Pressure 30.12 in    
Wind  
Wind Speed 6 mph (West)    
Max Wind Speed 15 mph    
Max Gust Speed 21 mph    
Visibility 8 miles    
Events      
T = Trace of Precipitation, MM = Missing Value Source: NWS Daily Summary

Daily Weather History Graph

Daily Weather History Graph

Search for Another Location

Airport or City:

Trip Planner

Search our weather history database for the weather conditions in past years. The results will help you decide how hot, cold, wet, or windy it might be!

Date:

Astronomy

Jun. 27, 2013 Rise Set
Actual Time 5:38 AM PDT 9:01 PM PDT
Civil Twilight 5:02 AM PDT 9:37 PM PDT
Nautical Twilight 4:16 AM PDT 10:23 PM PDT
Astronomical Twilight 3:17 AM PDT 11:22 PM PDT
Moon 11:51 PM PDT (6/27) 10:55 AM PDT (6/27)
Length of Visible Light 16h 34m
Length of Day
15h 23m
Waning Gibbous, 75% of the Moon is Illuminated
Jun 27
Waning Gibbous
Jun 29
Last Quarter
Jul 8
New
Jul 15
First Quarter
Jul 22
Full

Hourly Weather History & Observations

Time (PDT) Temp. Dew Point Humidity Pressure Visibility Wind Dir Wind Speed Gust Speed Precip Events Conditions
12:15 AM 62.6 °F 62.6 °F 100% 30.03 in 10.0 mi Calm Calm - N/A   Overcast
12:35 AM 62.6 °F 62.6 °F 100% 30.03 in 10.0 mi Calm Calm - N/A   Overcast
12:55 AM 62.6 °F 62.6 °F 100% 30.03 in 10.0 mi Calm Calm - N/A   Overcast
1:15 AM 62.6 °F 60.8 °F 94% 30.03 in 4.0 mi West 3.5 mph - N/A   Mostly Cloudy
1:35 AM 60.8 °F 60.8 °F 100% 30.03 in 2.5 mi West 3.5 mph - N/A   Scattered Clouds
1:55 AM 60.8 °F 60.8 °F 100% 30.03 in 4.0 mi Calm Calm - N/A   Scattered Clouds
2:15 AM 60.8 °F 60.8 °F 100% 30.04 in 2.5 mi Calm Calm - N/A   Mostly Cloudy
2:35 AM 60.8 °F 60.8 °F 100% 30.04 in 3.0 mi ENE 3.5 mph - N/A   Scattered Clouds
2:55 AM 60.8 °F 59.0 °F 94% 30.04 in 4.0 mi Calm Calm - N/A   Partly Cloudy
3:15 AM 60.8 °F 60.8 °F 100% 30.04 in 4.0 mi Calm Calm - N/A   Clear
3:35 AM 60.8 °F 59.0 °F 94% 30.04 in 7.0 mi Calm Calm - N/A   Clear
3:55 AM 64.4 °F 64.4 °F 100% 30.03 in 9.0 mi SSE 3.5 mph - N/A   Clear
4:15 AM 62.6 °F 62.6 °F 100% 30.03 in 10.0 mi SE 4.6 mph - N/A   Mostly Cloudy
4:35 AM 64.4 °F 62.6 °F 94% 30.04 in 10.0 mi SSE 3.5 mph - N/A   Overcast
4:55 AM 64.4 °F 62.6 °F 94% 30.04 in 10.0 mi Calm Calm - N/A   Overcast
5:15 AM 64.4 °F 62.6 °F 94% 30.04 in 10.0 mi SSE 4.6 mph - N/A   Overcast
5:35 AM 62.6 °F 62.6 °F 100% 30.05 in 9.0 mi West 3.5 mph - N/A   Overcast
5:55 AM 64.4 °F 64.4 °F 100% 30.05 in 4.0 mi Calm Calm - N/A   Overcast
6:15 AM 62.6 °F 60.8 °F 94% 30.06 in 8.0 mi Calm Calm - N/A   Overcast
6:35 AM 64.4 °F 64.4 °F 100% 30.07 in 10.0 mi SSE 3.5 mph - N/A   Overcast
6:55 AM 64.4 °F 62.6 °F 94% 30.07 in 10.0 mi SSE 5.8 mph - N/A   Overcast
7:15 AM 64.4 °F 64.4 °F 100% 30.08 in 10.0 mi SSE 6.9 mph - N/A   Overcast
7:35 AM 64.4 °F 64.4 °F 100% 30.08 in 10.0 mi South 5.8 mph - N/A   Overcast
7:55 AM 66.2 °F 64.4 °F 94% 30.09 in 10.0 mi South 5.8 mph - N/A   Overcast
8:15 AM 66.2 °F 64.4 °F 94% 30.09 in 10.0 mi South 4.6 mph - N/A   Overcast
8:35 AM 68.0 °F 62.6 °F 83% 30.10 in 10.0 mi Calm Calm - N/A   Overcast
8:55 AM 66.2 °F 60.8 °F 83% 30.10 in 10.0 mi Calm Calm - N/A   Overcast
9:15 AM 66.2 °F 62.6 °F 88% 30.11 in 10.0 mi Calm Calm - N/A   Overcast
9:35 AM 69.8 °F 64.4 °F 83% 30.11 in 9.0 mi WNW 6.9 mph - N/A   Overcast
9:55 AM 69.8 °F 64.4 °F 83% 30.12 in 10.0 mi WNW 10.4 mph - N/A   Mostly Cloudy
10:15 AM 71.6 °F 64.4 °F 78% 30.12 in 10.0 mi WNW 16.1 mph - N/A   Mostly Cloudy
10:35 AM 71.6 °F 64.4 °F 78% 30.13 in 10.0 mi West 15.0 mph - N/A   Mostly Cloudy
10:55 AM 71.6 °F 64.4 °F 78% 30.13 in 10.0 mi West 13.8 mph 19.6 mph N/A   Overcast
11:15 AM 69.8 °F 62.6 °F 78% 30.14 in 10.0 mi West 12.7 mph - N/A   Overcast
11:35 AM 71.6 °F 64.4 °F 78% 30.15 in 10.0 mi West 15.0 mph - N/A   Overcast
11:55 AM 69.8 °F 62.6 °F 78% 30.15 in 10.0 mi West 13.8 mph 20.7 mph N/A   Overcast
12:15 PM 68.0 °F 62.6 °F 83% 30.15 in 10.0 mi West 13.8 mph - N/A   Overcast
12:35 PM 71.6 °F 64.4 °F 78% 30.16 in 10.0 mi West 16.1 mph - N/A   Overcast
12:55 PM 71.6 °F 64.4 °F 78% 30.16 in 10.0 mi West 12.7 mph - N/A   Overcast
1:15 PM 71.6 °F 64.4 °F 78% 30.16 in 10.0 mi WNW 13.8 mph - N/A   Overcast
1:35 PM 71.6 °F 64.4 °F 78% 30.16 in 10.0 mi West 12.7 mph - N/A   Mostly Cloudy
1:55 PM 69.8 °F 62.6 °F 78% 30.17 in 10.0 mi WNW 15.0 mph - N/A   Clear
2:15 PM 68.0 °F 62.6 °F 83% 30.18 in 10.0 mi WNW 13.8 mph - N/A   Clear
2:35 PM 66.2 °F 62.6 °F 88% 30.18 in 10.0 mi WNW 13.8 mph - N/A   Clear
2:55 PM 66.2 °F 62.6 °F 88% 30.18 in 10.0 mi NW 11.5 mph - N/A   Clear
3:15 PM 66.2 °F 60.8 °F 83% 30.18 in 10.0 mi NW 10.4 mph - N/A   Clear
3:35 PM 64.4 °F 60.8 °F 88% 30.19 in 10.0 mi WNW 10.4 mph - N/A   Clear
3:55 PM 64.4 °F 60.8 °F 88% 30.19 in 10.0 mi NW 10.4 mph - N/A   Clear
4:15 PM 62.6 °F 60.8 °F 94% 30.19 in 10.0 mi NW 9.2 mph - N/A   Mostly Cloudy
4:35 PM 64.4 °F 60.8 °F 88% 30.19 in 10.0 mi NW 5.8 mph - N/A   Scattered Clouds
4:55 PM 64.4 °F 60.8 °F 88% 30.19 in 10.0 mi WNW 9.2 mph - N/A   Scattered Clouds
5:15 PM 64.4 °F 60.8 °F 88% 30.19 in 10.0 mi WNW 8.1 mph - N/A   Scattered Clouds
5:35 PM 64.4 °F 60.8 °F 88% 30.19 in 10.0 mi West 6.9 mph - N/A   Scattered Clouds
5:55 PM 66.2 °F 64.4 °F 94% 30.19 in 10.0 mi WNW 6.9 mph - N/A   Mostly Cloudy
6:15 PM 66.2 °F 64.4 °F 94% 30.19 in 10.0 mi WNW 8.1 mph - N/A   Mostly Cloudy
6:35 PM 68.0 °F 64.4 °F 88% 30.19 in 10.0 mi WNW 4.6 mph - N/A   Mostly Cloudy
6:55 PM 66.2 °F 62.6 °F 88% 30.18 in 10.0 mi WNW 4.6 mph - N/A   Scattered Clouds
7:15 PM 66.2 °F 62.6 °F 88% 30.18 in 10.0 mi WNW 6.9 mph - N/A   Scattered Clouds
7:35 PM 64.4 °F 62.6 °F 94% 30.18 in 10.0 mi WNW 8.1 mph - N/A   Scattered Clouds
7:55 PM 62.6 °F 60.8 °F 94% 30.18 in 0.2 mi WNW 5.8 mph - N/A   Mostly Cloudy
8:15 PM 64.4 °F 62.6 °F 94% 30.18 in 2.0 mi WNW 5.8 mph - N/A   Mostly Cloudy
8:35 PM 60.8 °F 59.0 °F 94% 30.18 in 0.2 mi NW 4.6 mph - N/A   Overcast
8:55 PM 62.6 °F 60.8 °F 94% 30.18 in 2.0 mi NW 5.8 mph - N/A   Overcast
9:15 PM 62.6 °F 62.6 °F 100% 30.18 in 1.5 mi NW 3.5 mph - N/A   Overcast
9:35 PM 60.8 °F 60.8 °F 100% 30.18 in 4.0 mi Calm Calm - N/A   Overcast
9:55 PM 60.8 °F 60.8 °F 100% 30.18 in 6.0 mi Calm Calm - N/A   Overcast
10:15 PM 60.8 °F 60.8 °F 100% 30.19 in 9.0 mi NW 3.5 mph - N/A   Overcast
10:35 PM 60.8 °F 59.0 °F 94% 30.19 in 10.0 mi Calm Calm - N/A   Mostly Cloudy
10:55 PM 60.8 °F 60.8 °F 100% 30.19 in 9.0 mi Calm Calm - N/A   Overcast
11:35 PM 60.8 °F 59.0 °F 94% 30.18 in 0.5 mi Calm Calm - N/A   Overcast
11:55 PM 60.8 °F 60.8 °F 100% 30.18 in 0.2 mi Calm Calm - N/A   Overcast